Powrót do katalogu

ONEWEB-0583

AktywnyŁącznośćPO
NORAD 54650·PAYLOAD·🇬🇧 United Kingdom

Wystrzelony Dec 8, 2022 z Cape Canaveral Space Force Station

Loading…

Następne Przeloty (najbliższe 24 godziny)

TLE

ŚwieżeSource: CelesTrak SupGP

Epoka: Sep 14, 2026, 14:57 UTC

1 54650C 22166J   26257.62341853 -.00000535  00000+0 -12959-2 0  2570
2 54650  87.9271 226.1926 0002201  85.6379 309.0501 13.21822889    10

Śledź ONEWEB-0583 w czasie rzeczywistym z AllMySat

Download on the App Store